Weather History for Kelsey Dam CS, MB

Change the Weather History Date:

Saturday, December 1, 2012

  Actual Average Record
Temperature  
Mean Temperature -0 °F -  
Max Temperature 2 °F - - ()
Min Temperature -3 °F - - ()
Degree Days  
Heating Degree Days 66    
Moisture  
Dew Point -4 °F    
Average Humidity 83    
Maximum Humidity 85    
Minimum Humidity 73    
Precipitation  
Precipitation 0.00 in - - ()
Sea Level Pressure  
Sea Level Pressure 29.98 in    
Wind  
Wind Speed 6 mph ()    
Max Wind Speed 8 mph    
Max Gust Speed -    
T = Trace of Precipitation, MM = Missing Value Source: Averaged Metar Reports

Daily Weather History Graph

Daily Weather History Graph

Search for Another Location

Airport:

Trip Planner

Search our weather history database for the weather conditions in past years. The results will help you decide how hot, cold, wet, or windy it might be!

Date:

Astronomy

Dec. 01, 2012 Rise Set
Actual Time 8:34 AM CST 3:56 PM CST
Civil Twilight 7:48 AM CST 4:41 PM CST
Nautical Twilight 7:00 AM CST 5:29 PM CST
Astronomical Twilight 6:15 AM CST 6:14 PM CST
Moon 6:57 PM CST 10:39 AM CST
Length of Visible Light 8h 53m
Length of Day
7h 22m
Waning Gibbous, 91% of the Moon is Illuminated
Dec 1
Waning Gibbous
Dec 6
Last Quarter
Dec 13
New
Dec 19
First Quarter
Dec 28
Full

Hourly Weather History & Observations

Time (CST) Temp. Windchill Dew Point Humidity Pressure Visibility Wind Dir Wind Speed Gust Speed Precip Events Conditions
12:00 AM -3 °F - -7 °F 73% 30.01 in - ENE 6.9 mph - -  
12:00 AM -3.5 °F -17.1 °F -7.2 °F 84% 30.01 in - ENE 6.9 mph - N/A   Unknown
1:00 AM -3.3 °F -16.9 °F -7.2 °F 83% 30.00 in - ENE 6.9 mph - N/A   Unknown
2:00 AM -3.1 °F -16.7 °F -7.1 °F 83% 29.98 in - ENE 6.9 mph - N/A   Unknown
3:00 AM -2.7 °F -17.5 °F -6.7 °F 83% 29.95 in - ENE 8.1 mph - N/A   Unknown
4:00 AM -2.6 °F -17.3 °F -6.3 °F 84% 29.93 in - ENE 8.1 mph - N/A   Unknown
5:00 AM -2.6 °F -16.0 °F -6.2 °F 85% 29.93 in - NE 6.9 mph - N/A   Unknown
6:00 AM -3 °F - -6 °F 78% 29.94 in - NE 6.9 mph - -  
6:00 AM -2.6 °F -16.0 °F -6.3 °F 84% 29.94 in - NE 6.9 mph - N/A   Unknown
7:00 AM -1.8 °F -16.4 °F -5.4 °F 85% 29.93 in - NE 8.1 mph - N/A   Unknown
8:00 AM -1.3 °F -15.7 °F -4.9 °F 85% 29.93 in - NE 8.1 mph - N/A   Unknown
9:00 AM -0.9 °F -12.7 °F -4.7 °F 84% 29.94 in - NE 5.8 mph - N/A   Unknown
10:00 AM -0.2 °F -13.2 °F -4.2 °F 83% 29.94 in - NNE 6.9 mph - N/A   Unknown
11:00 AM 0.5 °F -12.3 °F -3.5 °F 83% 29.94 in - NNE 6.9 mph - N/A   Unknown
12:00 PM 1 °F - -3 °F 73% 29.94 in - NE 6.9 mph - -  
12:00 PM 1.0 °F -11.7 °F -3.3 °F 82% 29.94 in - NE 6.9 mph - N/A   Unknown
1:00 PM 2.1 °F -11.6 °F -2.0 °F 83% 29.95 in - NNE 8.1 mph - N/A   Unknown
2:00 PM 2.3 °F -11.4 °F -1.7 °F 84% 29.97 in - North 8.1 mph - N/A   Unknown
3:00 PM 2.5 °F -10.0 °F -1.5 °F 84% 29.98 in - North 6.9 mph - N/A   Unknown
4:00 PM 2.3 °F -8.8 °F -1.3 °F 85% 29.99 in - NNE 5.8 mph - N/A   Unknown
5:00 PM 2.1 °F -9.0 °F -1.5 °F 85% 30.01 in - North 5.8 mph - N/A   Unknown
6:00 PM 2 °F - -2 °F 76% 30.03 in - North 5.8 mph - -  
6:00 PM 1.8 °F -9.5 °F -1.8 °F 85% 30.03 in - North 5.8 mph - N/A   Unknown
7:00 PM 1.0 °F -8.7 °F -2.7 °F 84% 30.03 in - NNE 4.6 mph - N/A   Unknown
8:00 PM 0.7 °F -10.7 °F -3.1 °F 84% 30.03 in - NE 5.8 mph - N/A   Unknown
9:00 PM 0.5 °F -9.3 °F -3.1 °F 85% 30.04 in - NNE 4.6 mph - N/A   Unknown
10:00 PM -0.2 °F -11.8 °F -4.0 °F 84% 30.04 in - NNE 5.8 mph - N/A   Unknown
11:00 PM -2.0 °F -15.4 °F -5.6 °F 85% 30.04 in - NNE 6.9 mph - N/A   Unknown